Weather Roundup
Issued by NWS Springfield, MO

Home | Current Version | Previous Version | Text Only | Print | Product List | Glossary On
Versions: 1 2 3 4 5 6 7 8 9 10 11 12 13 14 15 16 17 18 19 20 21 22 23 24 25 26 27 28 29 30 31 32 33 34 35 36 37 38 39 40 41 42 43 44 45 46 47 48 49 50
000
NZUS99 KSGF 161707
HRRSGF

HOURLY WEATHER
NATIONAL WEATHER SERVICE SPRINGFIELD MO
1100 AM CST SAT DEC 16 2017

......SGF CWA......

CITY           SKY/WX    TMP DP  RH WIND       PRES   REMARKS
SPRINGFIELD    SUNNY     55  26  32 SW21      30.03S
JOPLIN         SUNNY     53  28  38 SW20G33   30.03S
WEST PLAINS    SUNNY     50  26  39 SW13G20   30.10S
ROLLA          SUNNY     52  27  38 SW17      30.01S
OSAGE BEACH    SUNNY     55  27  34 SW13G21   30.00F
BRANSON        MOSUNNY   54  25  32 SW10G18   30.09S

......SURROUNDING SGF CWA......

CITY           SKY/WX    TMP DP  RH WIND       PRES   REMARKS
CHANUTE        SUNNY     51  27  39 SW20G29   29.96S
PARSONS        SUNNY     52  28  39 S13G24    30.00S
COFFEYVILLE    SUNNY     50  27  40 S20G28    30.01S
EMPORIA        SUNNY     52  27  38 S21G26    29.89S
GROVE OK       SUNNY     52  30  43 SW15G23   30.08S
ROGERS AR      SUNNY     50  26  39 SW15      30.09S
SILOAM SPRINGS SUNNY     50  27  40 S16       30.09F
HARRISON AR    SUNNY     53  26  35 SW10G20   30.10S
NEAR YELLVILLE SUNNY     51  26  37 S8        30.13F

......KANSAS AND MISSOURI......

CITY           SKY/WX    TMP DP  RH WIND       PRES   REMARKS
KANSAS CTY INT MOSUNNY   48  26  42 SW12G22   29.90R
DOWNTOWN KC    SUNNY     50  26  39 SW10      29.90F
COLUMBIA       SUNNY     53  27  36 SW16      29.96F
SEDALIA        SUNNY     52  28  39 SW17G25   29.95F
ST JOSEPH      SUNNY     47  28  47 SW16      29.88S
ST LOUIS       MOSUNNY   51  27  39 SW16      30.00F
SPIRIT OF STL  SUNNY     53  27  36 SW13G21   29.99F
KIRKSVILLE     SUNNY     48  30  49 SW10G20   29.90R
WICHITA        SUNNY     50  28  42 S18       29.89S
TOPEKA         SUNNY    N/A N/A N/A S10       29.89S
OLATHE         SUNNY     48  27  44 SW10      29.91S

......TENNESSEE......

CITY           SKY/WX    TMP DP  RH WIND       PRES   REMARKS
MEMPHIS        PTSUNNY   51  32  48 S13G24    30.24F
NASHVILLE      CLOUDY    47  28  47 S15       30.25F

......ARKANSAS.......

CITY           SKY/WX    TMP DP  RH WIND       PRES   REMARKS
FAYETTEVILLE   SUNNY     51  27  39 S13       30.10F
FT SMITH       CLOUDY    43  33  68 NE7       30.15F
LITTLE ROCK    PTSUNNY   50  31  48 VRB6      30.20F

......OKLAHOMA.......

CITY           SKY/WX    TMP DP  RH WIND       PRES   REMARKS
TULSA          MOSUNNY   52  26  36 S16       30.05F
PONCA CITY     SUNNY     54  28  36 SW18G25   29.96F
MCALESTER      MOSUNNY   54  28  36 S13G22    30.11F
OKLAHOMA CITY  CLOUDY    50  26  39 S16       30.00F

......IOWA............

CITY           SKY/WX    TMP DP  RH WIND       PRES   REMARKS
DES MOINES     MOSUNNY   45  25  45 W7        29.84R
QUAD CITIES    SUNNY     46  27  47 SW12      29.86S

......ILLINOIS........

CITY           SKY/WX    TMP DP  RH WIND       PRES   REMARKS
QUINCY         SUNNY     47  26  44 SW15G26   29.91S
CHICAGO        MOSUNNY   41  25  53 SW10      29.89F



USA.gov is the U.S. government's official web portal to all federal, state and local government web resources and services.